Location: Bay Shore Mobile Home Park
(38.5762°N, 75.0841°W)
Time: 09:00:40
(UTC+00:00)

BREEZE-M DEB (TANK) - Pass Details

Date: 15 November 2025
Orbit: 285 x 18364 km, 52.5° (Epoch: 04 December)

Event Time Altitude Azimuth Distance (km) Brightness Sun altitude
Rises 22:14:54 0° 246° (WSW) 1,951 8.3 -5.9°
Reaches altitude 10° 22:16:28 10° 256° (WSW) 1,142 6.3 -6.2°
Maximum altitude 22:18:26 40° 330° (NNW) 546 2.9 -6.6°
Drops below altitude 10° 22:21:52 10° 43° (NE) 2,018 5.2 -7.2°
Enters shadow 22:23:10 - 46° (NE) 2,682 5.8 -7.4°
